FENGYUN 1C DEB, 36225

Orbit data source: Space-Track

FENGYUN 1C DEB, 36225 is space debris in SSO originally from a launch on Mon, 10 May 1999 UTC launched from the Taiyaun Space Center, China (TSC). Fengyun 1C debris stems from the Chinese weather satellite Fengyun-1C, which was intentionally destroyed by a Chinese anti-satellite missile in 2007. This event dramatically increased the amount of space debris, with thousands of trackable fragments posing hazards to satellites and human spaceflight. The Fengyun 1C debris cloud has become a focal point in discussions about space sustainability and the need for international regulations to prevent the creation of new debris.

Loading next visibility...
Identifier
36225, 1999-025DVA
Orbit
SSO
Country
Flag of CNCN / PRC
Related business
Manufacturer
Unknown
Mission
Spacecraft
Bus & Motor
Unknown
Mass
Unknown
Launch date (UTC)
1999-05-10 (27 years ago)
Launch vehicle
Unknown
Launch site
Taiyaun Space Center, China (TSC)
Object type
Payload
Rocket body
Debris
Shape & HBR
Unknown shape, 0.1 m
Radar Cross Section
Small (<0.1 m²)

Expand to show TLE details & history
Last TLE update: 1 week ago

TLE from 1 week ago
0 FENGYUN 1C DEB
1 36225U 99025DVA 26153.22368389  .00061348  00000-0  24492-2 0  9996
2 36225  98.8266 307.0271 0028369  80.3064 280.1371 15.24548920693693
Epoch: 2026-06-02T05:22Z
TLE epoch observation values (Epoch: 2026-06-02T05:22:06.288Z)
Latitude
-0.00006°
Longitude
-24.19882°
Altitude
491.815 km
Speed
7.621 km/s
True Right ascension
20h 28m 06s
True Declination
0° 00' 00"
Sunlit
Object was in full shadow at epoch
Visualization orbit readout
Latitude
Unknown
Longitude
Unknown
Altitude
Unknown
Speed
Unknown
Apparent Right ascension
Unknown
Apparent Declination
Unknown
Sunlit
N/A
Visualization observer readout
Local Sidereal Time
01:58:49
Azimuth
Unknown
Elevation
Unknown
Doppler factor
Unknown
Orbital elements
Apogee altitude
508.648 km
Perigee altitude
469.685 km
Semi-major axis
6,867.304 km
Eccentricity
0.00284
Inclination
98.8266°
RAAN
307.0271°
Arg. of periapsis
80.3064°
True anomaly
279.81689°
Mean anomaly
280.1371°
Eccentric anomaly
279.97702°
Mean motion
3.81385 °/min
Orbital period
94.39 mins
BSTAR
0.0024492
Loading maneuver chart data...
Computing Atmospheric mass density...
Loading historical data...
Loading historical data...
Loading historical data...
Loading historical data...
Loading historical data...
Loading historical data...
Loading historical data...

Documentation

Showing up to 5 results
|